Location: Buckland
(65.9785°N, 161.1281°W)
Time: 13:42:45
(UTC+00:00)

PRISM - Pass Details

Date: 21 January 2021
Orbit: 565 x 584 km, 98.2° (Epoch: 04 March)

Event Time Altitude Azimuth Distance (km) Brightness Sun altitude
Rises 16:17:57 0° 24° (NNE) 2,786 ? -21.8°
Reaches altitude 10° 16:20:28 10° 9° (N) 1,887 ? -21.6°
Enters shadow 16:22:03 18° 349° (N) 1,464 ? -21.4°
